Time,TemperatureF,DewpointF,PressureIn,WindDirection,WindDirectionDegrees,WindSpeedMPH,WindSpeedGustMPH,Humidity,HourlyPrecipIn,Conditions,Clouds,dailyrainin,SoftwareType,DateUTC
2013-08-20 00:02:00,65.0,63.0,-100.00,South,185,3.0,4.0,92,-99.99,,,-99.99,,2013-08-20 05:02:00,
2013-08-20 00:10:00,62.0,60.0,-100.00,South,175,0.0,1.0,94,-99.99,,,-99.99,,2013-08-20 05:10:00,
2013-08-20 00:43:00,62.0,60.0,-100.00,South,175,0.0,1.0,94,-99.99,,,-99.99,,2013-08-20 05:43:00,
2013-08-20 00:52:00,62.0,60.0,-100.00,South,175,0.0,1.0,94,-99.99,,,-99.99,,2013-08-20 05:52:00,
2013-08-20 01:02:00,62.0,60.0,-100.00,South,175,0.0,1.0,94,-99.99,,,-99.99,,2013-08-20 06:02:00,
2013-08-20 01:42:00,61.0,60.0,-100.00,SE,130,0.0,0.0,96,-99.99,,,-99.99,,2013-08-20 06:42:00,
2013-08-20 01:52:00,61.0,60.0,-100.00,SE,130,0.0,0.0,96,-99.99,,,-99.99,,2013-08-20 06:52:00,
2013-08-20 02:01:00,61.0,60.0,-100.00,SE,130,0.0,0.0,96,-99.99,,,-99.99,,2013-08-20 07:01:00,
2013-08-20 02:11:00,61.0,60.0,-100.00,SE,130,0.0,0.0,96,-99.99,,,-99.99,,2013-08-20 07:11:00,
2013-08-20 02:42:00,58.0,57.0,-100.00,NE,45,0.0,1.0,96,-99.99,,,-99.99,,2013-08-20 07:42:00,
2013-08-20 02:52:00,58.0,57.0,-100.00,NE,45,0.0,1.0,96,-99.99,,,-99.99,,2013-08-20 07:52:00,
2013-08-20 03:02:00,58.0,57.0,-100.00,NE,45,0.0,1.0,96,-99.99,,,-99.99,,2013-08-20 08:02:00,
2013-08-20 04:42:00,59.0,58.0,-100.00,SE,125,1.0,2.0,97,-99.99,,,-99.99,,2013-08-20 09:42:00,
2013-08-20 04:53:00,59.0,58.0,-100.00,SE,125,1.0,2.0,97,-99.99,,,-99.99,,2013-08-20 09:53:00,
2013-08-20 05:04:00,59.0,58.0,-100.00,SE,125,1.0,2.0,97,-99.99,,,-99.99,,2013-08-20 10:04:00,
2013-08-20 05:10:00,61.0,60.0,-100.00,SE,125,1.0,2.0,97,-99.99,,,-99.99,,2013-08-20 10:10:00,
2013-08-20 05:43:00,61.0,60.0,-100.00,SE,125,1.0,2.0,97,-99.99,,,-99.99,,2013-08-20 10:43:00,
2013-08-20 05:52:00,61.0,60.0,-100.00,SE,125,1.0,2.0,97,-99.99,,,-99.99,,2013-08-20 10:52:00,
2013-08-20 06:02:00,61.0,60.0,-100.00,SE,125,1.0,2.0,97,-99.99,,,-99.99,,2013-08-20 11:02:00,
2013-08-20 06:10:00,61.0,60.0,-100.00,ESE,115,1.0,2.0,97,-99.99,,,-99.99,,2013-08-20 11:10:00,
2013-08-20 06:42:00,61.0,60.0,-100.00,ESE,115,1.0,2.0,97,-99.99,,,-99.99,,2013-08-20 11:42:00,
2013-08-20 06:52:00,61.0,60.0,-100.00,ESE,115,1.0,2.0,97,-99.99,,,-99.99,,2013-08-20 11:52:00,
2013-08-20 07:01:00,61.0,60.0,-100.00,ESE,115,1.0,2.0,97,-99.99,,,-99.99,,2013-08-20 12:01:00,
2013-08-20 07:10:00,62.0,61.0,-100.00,ESE,105,1.0,3.0,97,-99.99,,,-99.99,,2013-08-20 12:10:00,
2013-08-20 07:42:00,62.0,61.0,-100.00,ESE,105,1.0,3.0,97,-99.99,,,-99.99,,2013-08-20 12:42:00,
2013-08-20 07:52:00,62.0,61.0,-100.00,ESE,105,1.0,3.0,97,-99.99,,,-99.99,,2013-08-20 12:52:00,
2013-08-20 08:01:00,62.0,61.0,-100.00,ESE,105,1.0,3.0,97,-99.99,,,-99.99,,2013-08-20 13:01:00,
2013-08-20 08:42:00,67.0,66.0,-100.00,South,170,3.0,5.0,97,-99.99,,,-99.99,,2013-08-20 13:42:00,
2013-08-20 08:52:00,67.0,66.0,-100.00,South,170,3.0,5.0,97,-99.99,,,-99.99,,2013-08-20 13:52:00,
2013-08-20 09:02:00,67.0,66.0,-100.00,South,170,3.0,5.0,97,-99.99,,,-99.99,,2013-08-20 14:02:00,
2013-08-20 09:42:00,74.0,63.0,-100.00,SSW,210,5.0,9.0,69,-99.99,,,-99.99,,2013-08-20 14:42:00,
2013-08-20 09:52:00,74.0,63.0,-100.00,SSW,210,5.0,9.0,69,-99.99,,,-99.99,,2013-08-20 14:52:00,
2013-08-20 10:02:00,74.0,63.0,-100.00,SSW,210,5.0,9.0,69,-99.99,,,-99.99,,2013-08-20 15:02:00,
2013-08-20 10:10:00,79.0,63.0,-100.00,SSW,205,6.0,12.0,59,-99.99,,,-99.99,,2013-08-20 15:10:00,
2013-08-20 10:43:00,79.0,63.0,-100.00,SSW,205,6.0,12.0,59,-99.99,,,-99.99,,2013-08-20 15:43:00,
2013-08-20 10:53:00,79.0,63.0,-100.00,SSW,205,6.0,12.0,59,-99.99,,,-99.99,,2013-08-20 15:53:00,
2013-08-20 11:04:00,79.0,63.0,-100.00,SSW,205,6.0,12.0,59,-99.99,,,-99.99,,2013-08-20 16:04:00,
2013-08-20 11:10:00,82.0,63.0,-100.00,SSW,195,11.0,17.0,53,-99.99,,,-99.99,,2013-08-20 16:10:00,
2013-08-20 11:42:00,82.0,63.0,-100.00,SSW,195,11.0,17.0,53,-99.99,,,-99.99,,2013-08-20 16:42:00,
2013-08-20 11:53:00,82.0,63.0,-100.00,SSW,195,11.0,17.0,53,-99.99,,,-99.99,,2013-08-20 16:53:00,
2013-08-20 12:03:00,82.0,63.0,-100.00,SSW,195,11.0,17.0,53,-99.99,,,-99.99,,2013-08-20 17:03:00,
2013-08-20 13:11:00,86.0,62.0,-100.00,SSW,205,11.0,19.0,45,-99.99,,,-99.99,,2013-08-20 18:11:00,
2013-08-20 13:43:00,86.0,62.0,-100.00,SSW,205,11.0,19.0,45,-99.99,,,-99.99,,2013-08-20 18:43:00,
2013-08-20 13:52:00,86.0,62.0,-100.00,SSW,205,11.0,19.0,45,-99.99,,,-99.99,,2013-08-20 18:52:00,
2013-08-20 14:01:00,86.0,62.0,-100.00,SSW,205,11.0,19.0,45,-99.99,,,-99.99,,2013-08-20 19:01:00,
2013-08-20 14:12:00,86.0,63.0,-100.00,South,180,12.0,17.0,46,-99.99,,,-99.99,,2013-08-20 19:12:00,
2013-08-20 14:42:00,86.0,63.0,-100.00,South,180,12.0,17.0,46,-99.99,,,-99.99,,2013-08-20 19:42:00,
2013-08-20 14:53:00,86.0,63.0,-100.00,South,180,12.0,17.0,46,-99.99,,,-99.99,,2013-08-20 19:53:00,
2013-08-20 15:03:00,86.0,63.0,-100.00,South,180,12.0,17.0,46,-99.99,,,-99.99,,2013-08-20 20:03:00,
2013-08-20 15:11:00,86.0,62.0,-100.00,South,180,15.0,22.0,44,-99.99,,,-99.99,,2013-08-20 20:11:00,
2013-08-20 15:42:00,86.0,62.0,-100.00,South,180,15.0,22.0,44,-99.99,,,-99.99,,2013-08-20 20:42:00,
2013-08-20 15:52:00,86.0,62.0,-100.00,South,180,15.0,22.0,44,-99.99,,,-99.99,,2013-08-20 20:52:00,
2013-08-20 16:02:00,86.0,62.0,-100.00,South,180,15.0,22.0,44,-99.99,,,-99.99,,2013-08-20 21:02:00,
2013-08-20 17:12:00,84.0,62.0,-100.00,South,185,10.0,19.0,49,-99.99,,,-99.99,,2013-08-20 22:12:00,
2013-08-20 17:42:00,84.0,62.0,-100.00,South,185,10.0,19.0,49,-99.99,,,-99.99,,2013-08-20 22:42:00,
2013-08-20 17:53:00,84.0,62.0,-100.00,South,185,10.0,19.0,49,-99.99,,,-99.99,,2013-08-20 22:53:00,
2013-08-20 18:03:00,84.0,62.0,-100.00,South,185,10.0,19.0,49,-99.99,,,-99.99,,2013-08-20 23:03:00,
2013-08-20 18:10:00,83.0,64.0,-100.00,SSW,205,6.0,12.0,52,-99.99,,,-99.99,,2013-08-20 23:10:00,
2013-08-20 18:43:00,83.0,64.0,-100.00,SSW,205,6.0,12.0,52,-99.99,,,-99.99,,2013-08-20 23:43:00,
2013-08-20 18:53:00,83.0,64.0,-100.00,SSW,205,6.0,12.0,52,-99.99,,,-99.99,,2013-08-20 23:53:00,
2013-08-20 19:02:00,83.0,64.0,-100.00,SSW,205,6.0,12.0,52,-99.99,,,-99.99,,2013-08-21 00:02:00,
2013-08-20 19:11:00,80.0,63.0,-100.00,South,180,7.0,10.0,57,-99.99,,,-99.99,,2013-08-21 00:11:00,
2013-08-20 19:42:00,80.0,63.0,-100.00,South,180,7.0,10.0,57,-99.99,,,-99.99,,2013-08-21 00:42:00,
2013-08-20 19:52:00,80.0,63.0,-100.00,South,180,7.0,10.0,57,-99.99,,,-99.99,,2013-08-21 00:52:00,
2013-08-20 20:02:00,80.0,63.0,-100.00,South,180,7.0,10.0,57,-99.99,,,-99.99,,2013-08-21 01:02:00,
2013-08-20 20:10:00,74.0,69.0,-100.00,South,180,4.0,6.0,85,-99.99,,,-99.99,,2013-08-21 01:10:00,
2013-08-20 20:42:00,74.0,69.0,-100.00,South,180,4.0,6.0,85,-99.99,,,-99.99,,2013-08-21 01:42:00,
2013-08-20 20:52:00,74.0,69.0,-100.00,South,180,4.0,6.0,85,-99.99,,,-99.99,,2013-08-21 01:52:00,
2013-08-20 21:02:00,74.0,69.0,-100.00,South,180,4.0,6.0,85,-99.99,,,-99.99,,2013-08-21 02:02:00,
2013-08-20 21:10:00,74.0,71.0,-100.00,South,170,3.0,4.0,90,-99.99,,,-99.99,,2013-08-21 02:10:00,
2013-08-20 21:42:00,74.0,71.0,-100.00,South,170,3.0,4.0,90,-99.99,,,-99.99,,2013-08-21 02:42:00,
2013-08-20 21:52:00,74.0,71.0,-100.00,South,170,3.0,4.0,90,-99.99,,,-99.99,,2013-08-21 02:52:00,
2013-08-20 22:02:00,74.0,71.0,-100.00,South,170,3.0,4.0,90,-99.99,,,-99.99,,2013-08-21 03:02:00,
2013-08-20 22:11:00,75.0,68.0,-100.00,South,175,4.0,10.0,78,-99.99,,,-99.99,,2013-08-21 03:11:00,
2013-08-20 22:44:00,75.0,68.0,-100.00,South,175,4.0,10.0,78,-99.99,,,-99.99,,2013-08-21 03:44:00,
2013-08-20 22:55:00,75.0,68.0,-100.00,South,175,4.0,10.0,78,-99.99,,,-99.99,,2013-08-21 03:55:00,
2013-08-20 23:04:00,75.0,68.0,-100.00,South,175,4.0,10.0,78,-99.99,,,-99.99,,2013-08-21 04:04:00,
2013-08-20 23:10:00,75.0,67.0,-100.00,South,180,6.0,9.0,76,-99.99,,,-99.99,,2013-08-21 04:10:00,
2013-08-20 23:44:00,75.0,67.0,-100.00,South,180,6.0,9.0,76,-99.99,,,-99.99,,2013-08-21 04:44:00,
2013-08-20 23:54:00,75.0,67.0,-100.00,South,180,6.0,9.0,76,-99.99,,,-99.99,,2013-08-21 04:54:00,